Simultaneous Nadir Overpasses (SNOs) Predictions

Prediction of SNOs over PacNW region [( 10.00, 139.50) to ( 22.70, 165.60)] between AQUA and NPP Satellites:

Table of predicted SNOs over PacNW region for the next 30.0 days since TLE Epoch: 12/14/2012
Index Date (AQUA) Time (AQUA) AQUA Lat,Lon Date (NPP) Time (NPP) NPP Lat,Lon Distance(km) Time Diff (sec)
1 12/20/2012 15:11:16 18.66, 158.79 12/20/2012 15:10:10 19.18, 156.28 269.93 66
2 12/28/2012 15:59:58 22.34, 147.22 12/28/2012 15:59:53 22.88, 144.51 285.17 5
3 01/05/2013 15:12:25 16.75, 158.21 01/05/2013 15:10:47 17.24, 155.80 261.25 98




NCC Satellite Simultaneous Nadir Overpasses (SNOs) Prediction Service
